QPF
0.00 0.00 0.00 0.00 0.00 0.00 0.00 0.00 0.00 0.00 0.00 0.00 0.00 0.00 0.00 0.00 0.00 0.00 0.00 0.00 0.00 0.00
0.00 0.00 0.00 0.00 0.00 0.00 0.00 0.00 0.00 0.00 0.00 0.00 0.00 0.00 0.00 0.00 0.00 0.00 0.00 0.00 0.00 0.00
0.00 0.00 0.00 0.00 0.00 0.00 0.00 0.00 0.00 0.00 0.00 0.00 0.00 0.00 0.00 0.00 0.00 0.00 0.00 0.00 0.00 0.00
0.00 0.00 0.00 0.00 0.00 0.00 0.00 0.00 0.00 0.00 0.00 0.00 0.00 0.00 0.00 0.00 0.00 0.00 0.00 0.00 0.00 0.00
0.00 0.00 0.00 0.00 0.00 0.00 0.00 0.00 0.00 0.00 0.00 0.00 0.00 0.00 0.00 0.00 0.00 0.00 0.00 0.00 0.00 0.00
0.00 0.00 0.00 0.00 0.00 0.00 0.00 0.00 0.00 0.00 0.00 0.00 0.00 0.00 0.00 0.00 0.00 0.00 0.00 0.00 0.00 0.00
0.00 0.00 0.00 0.00 0.00 0.00 0.00 0.00 0.00 0.00 0.00 0.00 0.00 0.00 0.00 0.00 0.00 0.00 0.00 0.00 0.00 0.00
0.00 0.00 0.00 0.00 0.00 0.00 0.00 0.00 0.00 0.00 0.00 0.00 0.00 0.00 0.00 0.00 0.00 0.00 0.00 0.00 0.00 0.00
0.00 0.00 0.00 0.00 0.00 0.00 0.00 0.00 0.00 0.00 0.00 0.00 0.00 0.00 0.00 0.00 0.00 0.00 0.00 0.00 0.00 0.00
0.00 0.00 0.00 0.00 0.00 0.00 0.00 0.00 0.00 0.00 0.00 0.00 0.00 0.00 0.00 0.00 0.00 0.00 0.00 0.00 0.00 0.00
0.00 0.00 0.00 0.00 0.00 0.00 0.00 0.00 0.00 0.00 0.00 0.00 0.00 0.00 0.00 0.00 0.00 0.00 0.00 0.00 0.00 0.00
0.00 0.00 0.00 0.00 0.00 0.00 0.00 0.00 0.00 0.00 0.00 0.00 0.00 0.00 0.00 0.00 0.00 0.00 0.00 0.00 0.00 0.00
0.00 0.00 0.00 0.00 0.00 0.00 0.00 0.00 0.00 0.00 0.00 0.00 0.00 0.00 0.00 0.00 0.00 0.00 0.00 0.00 0.00 0.00
0.00 0.00 0.00 0.00 0.00 0.00 0.00 0.00 0.00 0.00 0.00 0.00 0.00 0.00 0.00 0.00 0.00 0.00 0.00 0.00 0.00 0.00
MSLP
1026.34 1026.45 1026.39 1025.95 1025.72 1025.78 1025.84 1025.61 1025.32 1024.90 1024.40 1023.67 1023.07 1022.48 1022.24 1022.18 1022.00 1021.75 1021.66 1021.59 1021.42 1021.09
1026.87 1026.84 1026.66 1026.26 1026.30 1026.32 1026.35 1025.82 1025.20 1025.27 1025.15 1024.41 1023.62 1023.22 1022.81 1022.54 1022.21 1022.13 1021.79 1021.51 1021.17 1021.05
1026.88 1026.69 1026.57 1026.41 1026.19 1026.06 1026.00 1026.00 1025.72 1025.30 1025.27 1024.91 1024.10 1023.59 1023.10 1022.78 1022.54 1022.28 1021.73 1021.37 1021.12 1020.67
1027.00 1026.98 1026.88 1026.67 1026.56 1026.52 1026.32 1026.29 1026.31 1025.94 1025.04 1024.92 1024.55 1023.82 1023.33 1023.01 1022.42 1022.18 1021.96 1021.29 1020.81 1020.26
1027.21 1027.27 1027.17 1026.93 1026.79 1026.65 1026.64 1025.98 1026.27 1025.88 1025.14 1024.81 1024.77 1024.02 1023.11 1022.89 1022.63 1022.18 1021.50 1020.90 1020.51 1019.90
1027.18 1027.15 1027.05 1026.95 1026.85 1026.71 1026.53 1026.19 1025.94 1025.58 1025.17 1024.51 1024.08 1023.63 1022.99 1022.40 1022.00 1021.72 1021.37 1020.86 1020.32 1019.47
1027.07 1027.12 1027.01 1026.82 1026.73 1026.67 1026.46 1026.16 1025.69 1025.17 1024.60 1024.29 1023.94 1023.24 1022.64 1022.27 1021.60 1021.14 1020.74 1020.02 1019.69 1018.79
1027.01 1026.99 1026.92 1026.79 1026.70 1026.47 1026.19 1025.80 1025.22 1024.76 1024.30 1023.85 1023.25 1022.67 1022.27 1021.82 1021.15 1020.53 1019.98 1019.36 1018.92 1017.87
1027.10 1027.06 1027.09 1027.06 1026.97 1026.63 1026.15 1025.69 1025.18 1024.67 1024.15 1023.32 1022.73 1022.34 1022.08 1021.61 1020.94 1020.29 1019.48 1018.58 1017.70 1016.98
1027.51 1027.63 1027.56 1027.39 1027.06 1026.64 1026.15 1025.67 1025.14 1024.62 1024.09 1023.17 1022.65 1022.28 1021.65 1021.04 1020.19 1019.27 1018.42 1017.63 1016.86 1016.13
1027.90 1027.99 1027.85 1027.59 1027.29 1026.83 1026.38 1025.86 1025.29 1024.67 1024.29 1023.54 1022.81 1022.22 1021.46 1020.71 1019.75 1018.76 1017.86 1017.23 1016.60 1015.94
1028.23 1028.25 1028.08 1027.86 1027.39 1026.97 1026.46 1025.86 1025.30 1024.75 1024.06 1023.58 1022.82 1022.32 1021.34 1020.34 1019.39 1018.32 1017.44 1016.95 1016.31 1015.73
1028.15 1028.10 1027.97 1027.73 1027.37 1026.90 1026.51 1025.71 1025.14 1024.37 1024.02 1023.36 1022.45 1021.80 1020.83 1019.80 1018.78 1017.61 1016.79 1016.15 1015.40 1014.87
1028.17 1028.05 1027.85 1027.43 1027.03 1026.56 1026.03 1025.49 1024.89 1024.12 1023.43 1022.74 1022.00 1021.02 1020.02 1018.96 1017.89 1017.01 1015.99 1015.18 1014.44 1013.95
Thickness
5472 5469 5468 5469 5469 5465 5464 5464 5465 5468 5472 5477 5480 5483 5485 5487 5488 5490 5492 5493 5495 5499
5448 5446 5446 5447 5446 5443 5439 5439 5443 5443 5443 5449 5454 5457 5460 5461 5463 5466 5469 5473 5477 5479
5427 5426 5425 5424 5423 5422 5421 5419 5418 5418 5417 5418 5425 5431 5434 5436 5439 5442 5446 5450 5453 5460
5404 5401 5399 5398 5396 5394 5395 5393 5391 5392 5397 5395 5396 5401 5405 5406 5411 5415 5420 5427 5431 5438
5379 5375 5373 5372 5370 5369 5367 5370 5368 5369 5375 5374 5372 5377 5384 5385 5385 5387 5396 5402 5408 5417
5353 5351 5348 5346 5345 5344 5343 5343 5345 5346 5348 5352 5355 5356 5359 5362 5365 5367 5372 5378 5384 5395
5326 5322 5319 5317 5316 5315 5315 5315 5317 5320 5323 5323 5327 5331 5333 5332 5338 5343 5349 5358 5363 5375
5300 5296 5292 5289 5287 5286 5286 5287 5290 5293 5294 5296 5299 5303 5301 5303 5310 5317 5324 5333 5340 5353
5279 5274 5269 5266 5263 5262 5262 5262 5262 5263 5263 5269 5272 5268 5267 5269 5275 5285 5298 5310 5322 5331
5255 5251 5247 5245 5243 5242 5242 5242 5241 5240 5240 5245 5244 5238 5239 5241 5248 5260 5272 5281 5290 5301
5236 5230 5227 5225 5222 5220 5219 5217 5216 5217 5214 5215 5217 5214 5215 5216 5222 5232 5243 5249 5256 5263
5217 5212 5207 5203 5201 5199 5197 5196 5193 5192 5191 5189 5190 5186 5188 5193 5199 5209 5218 5220 5224 5228
5202 5195 5191 5186 5181 5179 5174 5175 5174 5174 5169 5166 5167 5165 5169 5174 5180 5189 5194 5197 5202 5205
5185 5179 5173 5171 5166 5162 5159 5156 5155 5155 5154 5151 5150 5154 5158 5163 5169 5173 5180 5184 5188 5188